Weather History for KDTW - March, 2013

Change the Weather History Date:

Thursday, March 7, 2013

  Actual Average Record
Temperature  
Mean Temperature 35 °F 34 °F  
Max Temperature 41 °F 42 °F 76 °F (2000)
Min Temperature 28 °F 26 °F 2 °F (1913)
Degree Days  
Heating Degree Days 30 31  
Month to date heating degree days 246 226  
Since 1 July heating degree days 4531 4779  
Cooling Degree Days 0 0  
Month to date cooling degree days 0 0  
Year to date cooling degree days 0 0  
Moisture  
Dew Point 25 °F    
Average Humidity 67    
Maximum Humidity 82    
Minimum Humidity 51    
Precipitation  
Precipitation T in 0.07 in 1.06 in (2009)
Month to date precipitation 0.01 0.50  
Year to date precipitation 6.29 4.48  
Snow  
Snow T in 0.30 in 4.00 in (1885)
Month to date snowfall 0.2 2.1  
Since 1 July snowfall 44.7 36.0  
Snow Depth T in    
Sea Level Pressure  
Sea Level Pressure 30.31 in    
Wind  
Wind Speed 7 mph (NW)    
Max Wind Speed 14 mph    
Max Gust Speed 18 mph    
Visibility 9 miles    
Events Snow    
T = Trace of Precipitation, MM = Missing Value Source: NWS Daily Summary

Daily Weather History Graph

Daily Weather History Graph

Search for Another Location

Airport or City:

Trip Planner

Search our weather history database for the weather conditions in past years. The results will help you decide how hot, cold, wet, or windy it might be!

Date:

Astronomy

Mar. 07, 2013 Rise Set
Actual Time 6:58 AM EST 6:30 PM EST
Civil Twilight 6:30 AM EST 6:58 PM EST
Nautical Twilight 5:58 AM EST 7:31 PM EST
Astronomical Twilight 5:25 AM EST 8:03 PM EST
Moon 4:01 AM EST (3/7) 2:13 PM EST (3/7)
Length of Visible Light 12h 28m
Length of Day
11h 32m
Waning Crescent, 20% of the Moon is Illuminated
Mar 7
Waning Crescent
Mar 11
New
Mar 19
First Quarter
Mar 27
Full
Apr 3
Last Quarter

Hourly Weather History & Observations

Time (EST) Temp. Windchill Dew Point Humidity Pressure Visibility Wind Dir Wind Speed Gust Speed Precip Events Conditions
12:53 AM 35.1 °F 31.0 °F 28.0 °F 76% 30.22 in 8.0 mi WNW 4.6 mph - 0.00 in Snow Light Snow
1:44 AM 33.8 °F 30.8 °F 28.4 °F 81% 30.21 in 8.0 mi NW 3.5 mph - 0.00 in Snow Light Snow
1:53 AM 34.0 °F 31.0 °F 28.0 °F 79% 30.22 in 8.0 mi NW 3.5 mph - 0.00 in Snow Light Snow
2:28 AM 33.8 °F 30.8 °F 28.4 °F 81% 30.20 in 9.0 mi West 3.5 mph - 0.00 in Snow Light Snow
2:53 AM 34.0 °F 29.8 °F 28.0 °F 79% 30.22 in 9.0 mi WNW 4.6 mph - 0.00 in Snow Light Snow
3:53 AM 34.0 °F 29.8 °F 27.0 °F 75% 30.22 in 9.0 mi WNW 4.6 mph - 0.00 in Snow Light Snow
4:53 AM 33.1 °F 28.7 °F 27.0 °F 78% 30.24 in 9.0 mi WNW 4.6 mph - 0.00 in Snow Light Snow
5:53 AM 33.1 °F 28.7 °F 27.0 °F 78% 30.26 in 8.0 mi West 4.6 mph - 0.00 in Snow Light Snow
6:53 AM 32.0 °F 27.5 °F 26.1 °F 79% 30.27 in 10.0 mi NW 4.6 mph - 0.00 in   Overcast
7:53 AM 34.0 °F 29.8 °F 27.0 °F 75% 30.29 in 9.0 mi WNW 4.6 mph - N/A   Overcast
8:53 AM 36.0 °F 29.0 °F 28.9 °F 76% 30.31 in 10.0 mi WNW 9.2 mph - N/A   Mostly Cloudy
9:12 AM 37.4 °F 32.1 °F 28.4 °F 70% 30.29 in 10.0 mi NW 6.9 mph - N/A   Overcast
9:53 AM 37.0 °F 30.4 °F 28.9 °F 73% 30.32 in 10.0 mi NW 9.2 mph - N/A   Overcast
10:48 AM 35.6 °F 28.6 °F 30.2 °F 81% 30.31 in 6.0 mi NW 9.2 mph - 0.00 in Snow Light Snow
10:53 AM 35.1 °F 29.3 °F 30.0 °F 82% 30.33 in 6.0 mi NW 6.9 mph - 0.00 in Snow Light Snow
11:53 AM 37.9 °F 30.0 °F 28.9 °F 70% 30.33 in 9.0 mi NW 12.7 mph - 0.00 in Snow Light Snow
12:53 PM 37.9 °F 31.5 °F 27.0 °F 65% 30.33 in 10.0 mi NNW 9.2 mph - 0.00 in   Overcast
1:22 PM 37.4 °F 29.3 °F 26.6 °F 65% 30.31 in 10.0 mi NW 12.7 mph 18.4 mph N/A   Mostly Cloudy
1:53 PM 37.9 °F 30.0 °F 26.1 °F 62% 30.32 in 10.0 mi NNW 12.7 mph - N/A   Mostly Cloudy
2:41 PM 37.4 °F 30.3 °F 24.8 °F 60% 30.31 in 10.0 mi WNW 10.4 mph - N/A   Overcast
2:51 PM 37.4 °F 30.3 °F 24.8 °F 60% 30.31 in 10.0 mi West 10.4 mph - N/A   Overcast
2:53 PM 37.0 °F 29.3 °F 24.1 °F 59% 30.34 in 10.0 mi WNW 11.5 mph - N/A   Overcast
3:23 PM 35.6 °F 28.0 °F 24.8 °F 65% 30.32 in 10.0 mi NW 10.4 mph - N/A   Overcast
3:45 PM 35.6 °F 28.0 °F 24.8 °F 65% 30.33 in 10.0 mi NW 10.4 mph - N/A   Overcast
3:53 PM 36.0 °F 29.0 °F 24.1 °F 62% 30.35 in 10.0 mi NW 9.2 mph - N/A   Overcast
4:53 PM 36.0 °F 30.3 °F 23.0 °F 59% 30.36 in 10.0 mi NW 6.9 mph - N/A   Overcast
5:53 PM 35.1 °F 27.9 °F 21.9 °F 59% 30.37 in 10.0 mi NNW 9.2 mph - N/A   Overcast
6:53 PM 34.0 °F 26.6 °F 19.9 °F 56% 30.39 in 10.0 mi NW 9.2 mph - N/A   Overcast
7:53 PM 33.1 °F 25.5 °F 19.0 °F 56% 30.41 in 10.0 mi NW 9.2 mph - N/A   Overcast
8:53 PM 33.1 °F 24.9 °F 17.1 °F 52% 30.41 in 10.0 mi NW 10.4 mph - N/A   Overcast
9:53 PM 30.0 °F 23.2 °F 17.1 °F 59% 30.41 in 10.0 mi NW 6.9 mph - N/A   Scattered Clouds
10:53 PM 30.0 °F 25.2 °F 17.1 °F 59% 30.42 in 10.0 mi NNW 4.6 mph - N/A   Partly Cloudy
11:53 PM 28.9 °F - 17.1 °F 61% 30.41 in 10.0 mi Calm Calm - N/A   Partly Cloudy